リニア彗星

219P/LINEAR (2024)

English version
Home page
Updated on May 29, 2022

---------------------------------------------------------------------

・ プロフィール

・ 軌道要素

Epoch 2024 Feb. 20.0 TT = JDT 2460360.5
T 2024 Feb. 13.85813 TT                                 MPCW
q   2.3548488            (2000.0)            P               Q
n   0.14163241     Peri.  107.63229     +0.91600310     +0.36986372
a   3.6449727      Node   230.95347     -0.39968345     +0.87470898
e   0.3539461      Incl.   11.54004     +0.03451753     +0.31318530
P   6.96
From 519 observations 2002 June 5-2016 May 15, mean residual 0".7.
     Nongravitational parameters A1 = -1.63, A2 = -0.0974.

・ 星図

・ 光度変化

        m1 = 7.3 + 5 logΔ + 20 log r(t + 70)

---------------------------------------------------------------------

軌道要素はM.P.E.C. 2016-K18に掲載されたものです。
星図はステラナビゲータ Ver.10 (アストロアーツ) で作成したものです。
光度グラフはComet for Windowsで作成したものです。

---------------------------------------------------------------------

Copyright(C) Seiichi Yoshida (comet@aerith.net). All rights reserved.